RH
75 92 82 68 67 68 64 59 55 52 46 37 30 26 26 28 28 25 24 24 26 26 22 21 21 20 20 22 23 22 23 22 19 18 17 17 17 16 17 18 20 23 27
74 86 86 79 81 77 69 63 59 54 45 36 32 29 26 28 29 31 29 29 28 26 24 22 21 22 23 25 27 28 28 27 25 20 17 17 16 16 16 16 17 19 20
56 91 98 94 85 80 74 67 63 58 44 35 34 33 31 29 28 33 37 32 31 30 27 26 25 27 28 30 32 34 36 36 30 27 22 27 24 22 21 20 19 19 18
61 59 74 97 91 86 76 73 69 60 44 38 37 37 37 34 31 32 33 36 35 34 34 33 31 31 33 36 39 37 38 36 32 27 23 22 23 23 21 21 22 19 23
68 72 73 90 92 86 86 75 74 62 43 39 40 41 40 36 33 32 34 38 38 40 40 37 34 35 38 40 41 41 41 37 31 23 20 16 14 16 14 14 14 18 18
97 92 95 89 87 87 85 82 78 60 42 45 42 40 40 41 37 35 38 41 40 41 42 40 36 36 39 41 43 40 41 36 33 25 16 15 13 14 11 11 13 19 19
75 75 74 90 97 93 94 88 84 58 46 49 44 40 40 43 43 43 41 43 44 43 43 44 42 38 39 40 42 40 35 31 27 22 14 13 12 12 13 14 15 16 16
74 70 66 92 94 94 88 97 86 57 48 48 44 43 43 43 44 47 47 47 47 48 47 46 39 34 32 34 34 36 34 31 25 24 23 16 15 16 15 14 14 13 12
73 78 80 96 96 86 87 88 82 60 48 46 44 47 47 45 44 51 51 53 53 53 49 44 40 32 28 30 32 32 32 29 27 27 27 20 16 18 18 16 15 14 14
76 86 92 92 98 92 93 96 77 56 45 46 48 50 51 47 49 53 55 59 58 55 49 49 44 33 28 30 30 32 28 28 28 28 26 21 16 20 19 18 17 17 17
80 82 89 80 94 98 98 86 69 61 50 51 56 59 57 55 55 56 58 63 62 55 52 52 47 40 29 28 28 29 26 25 24 22 21 19 15 18 19 18 20 20 22
77 82 83 80 79 88 89 88 66 64 67 61 63 68 65 62 60 61 61 64 65 62 56 50 49 45 32 29 29 27 23 23 21 21 20 19 17 20 23 24 25 25 25
70 75 78 80 81 84 89 87 78 77 71 65 68 69 66 66 64 66 65 69 68 65 60 57 54 47 33 30 29 26 25 22 22 22 22 22 20 30 31 28 29 28 29
70 68 72 77 76 81 82 82 84 78 68 67 70 71 71 70 71 68 68 68 66 68 72 70 56 43 35 31 29 25 24 22 24 27 28 28 28 26 31 31 33 35 35
72 72 71 73 76 82 85 80 84 76 67 75 73 76 78 74 72 73 72 70 73 72 65 60 51 44 32 30 29 28 26 27 29 32 34 35 35 32 30 33 35 37 36
69 70 74 74 74 77 76 76 72 73 83 86 81 81 81 78 78 75 72 75 68 66 60 54 47 36 30 31 30 30 32 34 35 35 37 36 37 35 30 31 38 39 40
74 74 72 74 74 72 84 84 76 80 92 93 84 83 84 79 76 77 77 67 68 58 55 49 42 35 31 30 32 33 35 40 43 40 38 38 38 37 34 28 36 40 41
75 78 82 86 84 82 82 81 82 89 89 88 89 89 81 78 81 74 72 65 62 52 50 45 44 41 37 32 32 37 44 47 50 47 41 41 39 37 34 34 39 37 38
64 69 78 87 88 89 89 86 89 93 91 93 90 84 78 76 62 64 66 77 60 51 48 47 46 42 37 34 37 45 47 49 52 49 47 42 37 36 34 38 37 37 38
49 57 67 75 89 89 87 86 90 91 93 85 78 78 67 61 62 67 73 78 52 48 48 46 47 44 42 39 43 49 53 53 55 55 50 47 43 40 38 39 40 41 40
49 51 57 66 65 63 64 66 72 72 69 69 67 64 68 62 68 70 70 69 55 51 55 54 55 55 51 49 50 55 60 62 62 58 54 49 50 49 46 44 41 42 42
45 47 49 53 54 58 57 57 61 61 63 60 62 71 77 76 78 79 72 64 66 68 67 66 65 64 65 64 60 63 63 64 66 64 58 58 55 56 58 54 49 48 48
39 43 44 44 46 49 52 55 55 54 55 52 49 53 65 73 72 75 72 63 70 82 80 82 86 87 83 74 70 70 71 71 69 67 62 61 60 60 59 54 56 58 57
36 34 36 39 41 41 42 44 48 49 51 51 51 51 52 60 68 72 80 79 78 84 87 78 78 80 92 84 80 83 79 80 76 70 68 69 66 66 66 60 62 62 65
34 33 32 34 36 37 37 41 49 48 50 52 59 67 75 73 74 80 80 85 82 80 83 80 81 77 90 83 83 84 80 81 77 76 74 75 70 71 65 65 67 66 66
35 33 32 36 41 44 46 46 57 65 64 65 65 68 83 85 82 84 90 88 86 86 88 85 81 77 88 91 86 84 85 81 76 77 76 77 76 75 72 73 73 73 71